Regional Weather Roundup
Issued by NWS

Home | Current Version | Previous Version | Graphics & Text | Print | Product List | Glossary On
Versions: 1 2 3 4 5 6 7 8 9 10 11 12 13 14 15 16 17 18 19 20 21 22 23 24 25 26 27
000
ASUS45 KPSR 271510
RWRAZ

ARIZONA HOURLY REGIONAL WEATHER ROUNDUP
NATIONAL WEATHER SERVICE PHOENIX AZ
800 AM MST FRI MAY 27 2016

NOTE: FAIR INDICATES FEW OR NO CLOUDS BELOW 12,000 FEET WITH NO
SIGNIFICANT WEATHER AND/OR OBSTRUCTIONS TO VISIBILITY.

AZZ001>003-036-271600-
NORTHWEST ARIZONA

CITY           SKY/WX    TMP DP  RH WIND       PRES   REMARKS
BULLHEAD CITY  SUNNY     75  34  22 S7        29.87S
KINGMAN        SUNNY     70  31  23 CALM      29.96R
$$

AZZ004>008-015-016-018-271600-
NORTH CENTRAL ARIZONA

CITY           SKY/WX    TMP DP  RH WIND       PRES   REMARKS
GRAND CANYON   SUNNY     56  31  38 W7        30.09S
WILLIAMS       SUNNY     55  28  35 W10       30.17R
PRESCOTT       SUNNY     60  28  29 NE3       30.04R
FLAGSTAFF      SUNNY     53  29  39 VRB7      30.10R
PAYSON         SUNNY     63  28  27 CALM      30.06S
PAGE           SUNNY     64  35  34 E3        29.97R
$$

AZZ009>014-017-271600-
NORTHEAST ARIZONA

CITY           SKY/WX    TMP DP  RH WIND       PRES   REMARKS
WINSLOW        SUNNY     62  29  28 NW5       30.01F
SAINT JOHNS    SUNNY     59  28  30 W9        30.02S
WINDOW ROCK    SUNNY     53  31  42 CALM      30.02F
SHOW LOW       SUNNY     54  27  35 CALM      30.08S
$$

AZZ023-271600-
GREATER PHOENIX AREA

CITY           SKY/WX    TMP DP  RH WIND       PRES   REMARKS
PHOENIX        SUNNY     72  35  25 E5        29.88R
BUCKEYE        SUNNY     73  37  27 CALM      29.90R
GLENDALE       SUNNY     73  37  27 CALM      29.89R
LUKE AFB       SUNNY     74  36  24 N3        29.87R
DEER VALLEY    SUNNY     72  36  26 S5        29.89R
SCOTTSDALE     SUNNY     72  35  25 S5        29.90S
MESA-GATEWAY   SUNNY     70  34  26 SE6       29.90S
CHANDLER       SUNNY     72  37  28 VRB5      29.89S
$$

AZZ027-028-271600-
SOUTHWEST MARICOPA COUNTY AND PINAL COUNTY

CITY           SKY/WX    TMP DP  RH WIND       PRES   REMARKS
CASA GRANDE    SUNNY     70  30  23 CALM      29.91S
GILA BEND      FAIR      73  37  26 CALM      29.87R
$$

AZZ503-504-507>509-271600-
SOUTHEAST ARIZONA

CITY           SKY/WX    TMP DP  RH WIND       PRES   REMARKS
TUCSON         SUNNY     66  27  23 CALM      29.97R
DAVIS-MONTHAN  SUNNY     68  27  21 S5        29.95R
RYAN FIELD     SUNNY     66  30  26 CALM      29.96S
NOGALES        SUNNY     63  27  25 CALM      29.99S
SIERRA VISTA   SUNNY     64  23  21 CALM      30.04R
DOUGLAS        SUNNY     62  23  22 VRB3      30.02R
SAFFORD        SUNNY     64  25  22 S6        29.95S
$$

AZZ020-021-025-026-031-271600-
SOUTHWEST ARIZONA

CITY           SKY/WX    TMP DP  RH WIND       PRES   REMARKS
YUMA           SUNNY     76  47  35 CALM      29.85R
$$

CAZ031-033-041-043-047-048-061-271600-
SOUTHERN CALIFORNIA

CITY           SKY/WX    TMP DP  RH WIND       PRES   REMARKS
DOWNTOWN L.A.  CLOUDY    62  54  74 CALM      29.94S
L.A. AIRPORT   PTSUNNY   61  54  77 E6        29.96R
SAN DIEGO      CLOUDY    63  56  78 W7        29.96S
BURBANK        SUNNY     59  52  77 S3        29.94F
ONTARIO        MOSUNNY   61  52  72 VRB3      29.94F
RIVERSIDE      CLOUDY    61  52  72 CALM      29.95F
PALM SPRINGS   SUNNY     72  50  45 CALM      29.84F
EL CENTRO NAS  SUNNY     74  47  38 SW6       29.85R
IMPERIAL       SUNNY     75  50  41 W6        29.83R
BLYTHE         SUNNY     75  47  36 CALM      29.85R
NEEDLES        SUNNY     78  32  18 CALM      29.85R
$$

NVZ020-UTZ003-271600-
SOUTHERN NEVADA-UTAH

CITY           SKY/WX    TMP DP  RH WIND       PRES   REMARKS
LAS VEGAS      MOSUNNY   73  35  25 CALM      29.87R
SALT LAKE CITY PTSUNNY   60  41  49 SE7       29.98R
$$

NMZ009-TXZ055-271600-
NEW MEXICO-WEST TEXAS

CITY           SKY/WX    TMP DP  RH WIND       PRES   REMARKS
ALBUQUERQUE    CLOUDY    55  28  35 SW5       29.97S
EL PASO        SUNNY     70  24  17 W15       29.95R
$$


........................KEY........................
SKY/WX - SKY CONDITION/WEATHER
TMP    - TEMPERATURE IN FAHRENHEIT
DP     - DEW POINT IN FAHRENHEIT
RH     - RELATIVE HUMIDITY IN PERCENT
WIND   - DIRECTION AND SPEED IN MILES PER HOUR (MPH)
VRB    - VARIABLE WIND DIRECTION
PRES   - MEAN SEA LEVEL PRESSURE IN INCHES OF MERCURY
         F - FALLING PRESSURE   R - RISING PRESSURE
         S - STEADY PRESSURE
VSB    - VISIBILITY IN MILES
HX     - HEAT INDEX IN FAHRENHEIT
WCI    - WIND CHILL INDEX IN FAHRENHEIT
TC     - TEMPERATURE IN CELSIUS WHICH IS ALSO KNOWN AS
         TEMPERATURE IN CENTIGRADE
AFB    - AIR FORCE BASE
         LUKE AFB IS LUKE AIR FORCE BASE
         DAVIS-MONTHAN IS DAVIS-MONTHAN AIR FORCE BASE
NAS    - NAVAL AIR STATION
         EL CENTRO NAS IS EL CENTRO NAVAL AIR STATION
N/A    - NOT AVAILABLE





USA.gov is the U.S. government's official web portal to all federal, state and local government web resources and services.